| time (UTC) | temp F | wind direction | speed MPH | gust MPH | rain 1hr in | rain 24hr in | rain mn in | humidity % | barometer mb |
| 20260507040055 | 49 | 314 | 0.0 | 0.0 | 0.00 | 0.32 | 0.00 | 92 | 1007.8 |
| 20260507034555 | 49 | 67 | 0.0 | 1.0 | 0.00 | 0.32 | 0.32 | 92 | 1007.7 |
| 20260507033054 | 49 | 67 | 0.0 | 2.0 | 0.00 | 0.32 | 0.32 | 91 | 1008.0 |
| 20260507031552 | 49 | 314 | 0.0 | 2.0 | 0.00 | 0.32 | 0.32 | 92 | 1008.1 |
| 20260507030051 | 49 | 314 | 1.0 | 3.0 | 0.00 | 0.32 | 0.32 | 91 | 1008.2 |
| 20260507024552 | 49 | 46 | 1.0 | 4.0 | 0.01 | 0.32 | 0.32 | 92 | 1008.2 |
| 20260507023102 | 49 | 42 | 1.0 | 3.0 | 0.01 | 0.32 | 0.32 | 92 | 1008.1 |
| 20260507021545 | 50 | 21 | 0.0 | 3.0 | 0.02 | 0.32 | 0.32 | 92 | 1008.1 |
| 20260507020050 | 50 | 69 | 0.0 | 1.0 | 0.03 | 0.32 | 0.32 | 92 | 1008.1 |
| 20260507014541 | 50 | 69 | 0.0 | 0.0 | 0.04 | 0.31 | 0.31 | 92 | 1008.1 |
| 20260507013040 | 50 | 69 | 0.0 | 2.0 | 0.04 | 0.31 | 0.31 | 91 | 1007.7 |
| 20260507011545 | 50 | 69 | 0.0 | 3.0 | 0.03 | 0.30 | 0.30 | 91 | 1007.7 |
| 20260507010037 | 51 | 28 | 0.0 | 2.0 | 0.02 | 0.28 | 0.28 | 91 | 1007.8 |
| 20260507004535 | 51 | 63 | 0.0 | 4.0 | 0.00 | 0.27 | 0.27 | 90 | 1007.3 |
| 20260507003030 | 52 | 312 | 0.0 | 1.0 | 0.01 | 0.27 | 0.27 | 90 | 1007.0 |
| 20260507001601 | 53 | 49 | 1.0 | 4.0 | 0.01 | 0.27 | 0.27 | 90 | 1006.5 |
| 20260507000032 | 53 | 311 | 1.0 | 8.0 | 0.01 | 0.27 | 0.27 | 89 | 1006.4 |
| 20260506234524 | 54 | 96 | 1.0 | 10.0 | 0.01 | 0.27 | 0.27 | 90 | 1005.9 |
| 20260506233020 | 57 | 303 | 5.0 | 16.0 | 0.00 | 0.26 | 0.26 | 88 | 1005.2 |
| 20260506231518 | 60 | 190 | 0.0 | 4.0 | 0.00 | 0.26 | 0.26 | 94 | 1003.9 |
| 20260506230017 | 60 | 216 | 0.0 | 2.0 | 0.00 | 0.26 | 0.26 | 94 | 1003.9 |
| 20260506224517 | 60 | 215 | 0.0 | 2.0 | 0.00 | 0.26 | 0.26 | 94 | 1003.8 |
| 20260506223019 | 60 | 217 | 0.0 | 2.0 | 0.00 | 0.26 | 0.26 | 94 | 1003.8 |
| 20260506221515 | 60 | 217 | 0.0 | 8.0 | 0.00 | 0.26 | 0.26 | 94 | 1003.8 |
| 20260506220014 | 60 | 170 | 0.0 | 0.0 | 0.00 | 0.26 | 0.26 | 94 | 1003.8 |
| 20260506214513 | 60 | 170 | 0.0 | 1.0 | 0.00 | 0.26 | 0.26 | 94 | 1003.8 |
| 20260506213013 | 60 | 215 | 1.0 | 3.0 | 0.00 | 0.26 | 0.26 | 94 | 1003.9 |
| 20260506211512 | 60 | 194 | 0.0 | 2.0 | 0.00 | 0.26 | 0.26 | 93 | 1003.7 |
| 20260506210022 | 60 | 194 | 0.0 | 3.0 | 0.00 | 0.26 | 0.26 | 93 | 1003.8 |
| 20260506204511 | 60 | 235 | 2.0 | 5.0 | 0.01 | 0.26 | 0.26 | 93 | 1003.8 |
| 20260506203011 | 60 | 311 | 0.0 | 4.0 | 0.02 | 0.26 | 0.26 | 93 | 1003.9 |
| 20260506201513 | 60 | 268 | 0.0 | 8.0 | 0.03 | 0.26 | 0.26 | 93 | 1003.8 |
| 20260506200007 | 60 | 253 | 1.0 | 7.0 | 0.07 | 0.26 | 0.26 | 93 | 1004.0 |
| 20260506194507 | 60 | 213 | 1.0 | 6.0 | 0.07 | 0.25 | 0.25 | 93 | 1004.2 |
| 20260506193005 | 61 | 166 | 2.0 | 7.0 | 0.08 | 0.24 | 0.24 | 93 | 1004.3 |
| 20260506191507 | 61 | 191 | 1.0 | 5.0 | 0.09 | 0.23 | 0.23 | 92 | 1004.3 |
| 20260506190002 | 61 | 226 | 2.0 | 6.0 | 0.05 | 0.19 | 0.19 | 92 | 1004.4 |
| 20260506184504 | 61 | 200 | 1.0 | 5.0 | 0.05 | 0.18 | 0.18 | 92 | 1004.4 |
| 20260506183002 | 62 | 230 | 1.0 | 8.0 | 0.04 | 0.16 | 0.16 | 91 | 1004.4 |
| 20260506181604 | 62 | 155 | 2.0 | 8.0 | 0.03 | 0.14 | 0.14 | 91 | 1004.5 |
| 20260506180058 | 61 | 204 | 0.0 | 3.0 | 0.04 | 0.14 | 0.14 | 91 | 1004.6 |
| 20260506174557 | 61 | 207 | 2.0 | 5.0 | 0.06 | 0.13 | 0.13 | 90 | 1004.7 |
| 20260506173104 | 62 | 171 | 2.0 | 5.0 | 0.08 | 0.12 | 0.12 | 90 | 1004.8 |
| 20260506171555 | 62 | 111 | 1.0 | 9.0 | 0.09 | 0.11 | 0.11 | 90 | 1004.9 |
| 20260506170057 | 62 | 212 | 1.0 | 5.0 | 0.09 | 0.10 | 0.10 | 90 | 1005.3 |
| 20260506164558 | 62 | 173 | 1.0 | 5.0 | 0.07 | 0.07 | 0.07 | 89 | 1005.8 |
| 20260506163056 | 62 | 198 | 0.0 | 5.0 | 0.04 | 0.04 | 0.04 | 88 | 1006.0 |
| 20260506161547 | 62 | 204 | 0.0 | 5.0 | 0.02 | 0.02 | 0.02 | 86 | 1005.8 |
| 20260506160052 | 63 | 198 | 3.0 | 10.0 | 0.01 | 0.01 | 0.01 | 85 | 1006.1 |
| 20260506154543 | 63 | 117 | 0.0 | 9.0 | 0.00 | 0.00 | 0.00 | 83 | 1006.1 |
| 20260506153040 | 64 | 246 | 2.0 | 7.0 | 0.00 | 0.00 | 0.00 | 81 | 1006.2 |
| 20260506151540 | 64 | 148 | 3.0 | 11.0 | 0.00 | 0.00 | 0.00 | 79 | 1006.3 |
| 20260506150043 | 65 | 221 | 0.0 | 9.0 | 0.00 | 0.00 | 0.00 | 79 | 1006.5 |
| 20260506144537 | 64 | 215 | 4.0 | 7.0 | 0.00 | 0.00 | 0.00 | 78 | 1006.6 |
| 20260506143039 | 65 | 226 | 2.0 | 8.0 | 0.00 | 0.00 | 0.00 | 78 | 1006.7 |
| 20260506141541 | 65 | 153 | 4.0 | 10.0 | 0.00 | 0.00 | 0.00 | 77 | 1006.6 |
| 20260506140034 | 65 | 234 | 4.0 | 8.0 | 0.00 | 0.00 | 0.00 | 78 | 1006.7 |
| 20260506134532 | 64 | 219 | 0.0 | 4.0 | 0.00 | 0.00 | 0.00 | 79 | 1006.4 |
| 20260506133034 | 64 | 178 | 3.0 | 8.0 | 0.00 | 0.00 | 0.00 | 78 | 1006.3 |
| 20260506131531 | 64 | 218 | 1.0 | 9.0 | 0.00 | 0.00 | 0.00 | 80 | 1006.3 |
| 20260506130033 | 63 | 262 | 1.0 | 9.0 | 0.00 | 0.00 | 0.00 | 80 | 1006.3 |
| 20260506124531 | 63 | 269 | 3.0 | 7.0 | 0.00 | 0.00 | 0.00 | 81 | 1006.8 |
| 20260506123030 | 63 | 217 | 1.0 | 10.0 | 0.00 | 0.00 | 0.00 | 81 | 1006.8 |
| 20260506121530 | 62 | 227 | 4.0 | 9.0 | 0.00 | 0.00 | 0.00 | 81 | 1007.1 |
| 20260506120048 | 62 | 243 | 2.0 | 10.0 | 0.00 | 0.00 | 0.00 | 82 | 1007.0 |
| 20260506114532 | 61 | 218 | 3.0 | 11.0 | 0.00 | 0.00 | 0.00 | 81 | 1006.9 |
| 20260506113026 | 61 | 184 | 3.0 | 10.0 | 0.00 | 0.00 | 0.00 | 81 | 1006.8 |
| 20260506111526 | 61 | 223 | 4.0 | 11.0 | 0.00 | 0.00 | 0.00 | 81 | 1006.8 |
| 20260506110029 | 61 | 184 | 2.0 | 7.0 | 0.00 | 0.00 | 0.00 | 80 | 1006.8 |
| 20260506104536 | 61 | 176 | 1.0 | 9.0 | 0.00 | 0.00 | 0.00 | 80 | 1006.8 |
| 20260506103037 | 61 | 164 | 3.0 | 11.0 | 0.00 | 0.00 | 0.00 | 79 | 1006.9 |
| 20260506101522 | 61 | 210 | 2.0 | 8.0 | 0.00 | 0.00 | 0.00 | 79 | 1006.7 |
| 20260506100022 | 61 | 259 | 2.0 | 8.0 | 0.00 | 0.00 | 0.00 | 79 | 1006.6 |
| 20260506094519 | 61 | 224 | 2.0 | 9.0 | 0.00 | 0.00 | 0.00 | 78 | 1006.3 |
| 20260506093022 | 61 | 155 | 1.0 | 5.0 | 0.00 | 0.00 | 0.00 | 77 | 1006.4 |
| 20260506091518 | 61 | 190 | 2.0 | 7.0 | 0.00 | 0.00 | 0.00 | 76 | 1006.2 |
| 20260506090015 | 62 | 242 | 3.0 | 8.0 | 0.00 | 0.00 | 0.00 | 75 | 1006.5 |
| 20260506084528 | 62 | 238 | 0.0 | 9.0 | 0.00 | 0.00 | 0.00 | 73 | 1006.6 |
| 20260506083014 | 62 | 174 | 0.0 | 5.0 | 0.00 | 0.00 | 0.00 | 73 | 1006.6 |
| 20260506081515 | 61 | 269 | 2.0 | 6.0 | 0.00 | 0.00 | 0.00 | 76 | 1006.5 |
| 20260506073007 | 62 | 231 | 0.0 | 3.0 | 0.00 | 0.00 | 0.00 | 74 | 1006.7 |
| 20260506071503 | 62 | 210 | 0.0 | 5.0 | 0.00 | 0.00 | 0.00 | 74 | 1006.8 |
| 20260506061556 | 64 | 144 | 1.0 | 6.0 | 0.00 | 0.00 | 0.00 | 69 | 1007.1 |
| 20260506044542 | 67 | 323 | 0.0 | 3.0 | 0.00 | 0.00 | 0.00 | 62 | 1007.3 |
| 20260506043044 | 67 | 134 | 1.0 | 7.0 | 0.00 | 0.00 | 0.00 | 61 | 1007.0 |
| 20260506041537 | 68 | 229 | 1.0 | 5.0 | 0.00 | 0.00 | 0.00 | 59 | 1007.0 |